Regional Weather Roundup
Issued by NWS Wilmington, NC

Home | Current Version | Previous Version | Text Only | Print | Product List | Glossary On
Versions: 1 2 3 4 5 6 7 8 9 10 11 12 13 14 15 16 17 18 19 20 21 22 23 24 25 26 27 28 29 30 31 32 33 34 35 36 37 38 39 40 41 42 43 44 45 46 47 48 49 50
683
ASUS42 KILM 180613
RWRILM
RWRILM
REGIONAL HOURLY WEATHER ROUNDUP
NATIONAL WEATHER SERVICE WILMINGTON NC
200 AM EDT FRI AUG 18 2017

NOTE: "FAIR" INDICATES FEW OR NO CLOUDS BELOW 12,000 FEET WITH NO
SIGNIFICANT WEATHER AND/OR OBSTRUCTIONS TO VISIBILITY.

...............WFO WILMINGTON COUNTY WARNING AREA...............

......COASTAL NC AND SC COUNTIES......

CITY           SKY/WX    TMP DP  RH WIND       PRES   REMARKS
WILMINGTON     PTCLDY    81  80  97 S5        29.96F FOG     HX  91
N MYRTLE BEACH PTCLDY    83  81  94 SW8       29.96F HX  97
MYRTLE BEACH   NOT AVBL

......INLAND NC AND SC COUNTIES.......

CITY           SKY/WX    TMP DP  RH WIND       PRES   REMARKS
LUMBERTON      CLEAR     76  75  97 CALM      29.94F
ELIZABETHTOWN  NOT AVBL
WHITEVILLE     NOT AVBL
FLORENCE       CLEAR     78  77  96 S5        29.95F
DARLINGTON     CLEAR     78  77  96 CALM      29.95F
KINGSTREE      FAIR      77  75  94 S3        29.95F
HARTSVILLE     FAIR      77  73  88 CALM      29.95F
BENNETTSVILLE  FAIR      79  79 100 CALM      29.94F
CONWAY         FAIR      77  77 100 CALM      29.96F
GEORGETOWN     FAIR      79  79 100 CALM      29.98F
MARION         FAIR      77  73  88 S5        29.95F

....................REST OF NORTH CAROLINA......................

.........EASTERN NC.........

CITY           SKY/WX    TMP DP  RH WIND       PRES   REMARKS
CAPE HATTERAS  CLEAR     83  77  82 S12       29.99F HX  92
JACKSONVILLE   PTCLDY    78  77  96 S5        29.97F
MOREHEAD CITY  PTCLDY    82  80  94 S9        29.97F HX  94
KENANSVILLE    CLEAR     75  75 100 CALM      29.97F FOG
NEW BERN       PTCLDY    79  78  97 SE5       29.97F
ELIZABETH CITY PTCLDY    79  76  90 S7        29.95F

.........CENTRAL NC.........

CITY           SKY/WX    TMP DP  RH WIND       PRES   REMARKS
RALEIGH DURHAM PTCLDY    77  74  90 S5        29.96F
ROCKY MOUNT    CLEAR     75  75 100 S3        29.95F
ROANOKE RAPIDS NOT AVBL
FAYETTEVILLE   CLEAR     76  75  97 SE3       29.94F
HOFFMAN        CLEAR     76  75  96 S6        29.94F

.........WESTERN NC.........

CITY           SKY/WX    TMP DP  RH WIND       PRES   REMARKS
CHARLOTTE      PTCLDY    79  76  90 S5        29.96F
GREENSBORO     CLEAR     77  76  96 S5        29.95F
HICKORY        NOT AVBL
BOONE          NOT AVBL
ASHEVILLE      NOT AVBL

.....................REST OF SOUTH CAROLINA.....................

.........EASTERN SC.........

CITY           SKY/WX    TMP DP  RH WIND       PRES   REMARKS
CHARLESTON     CLOUDY    81  79  94 SW5       29.97F HX  90
BEAUFORT MCAS  CLEAR     81  78  91 SW5       29.97F
HILTON HEAD    CLEAR     82  79  89 SW7       29.99S HX  93

.........CENTRAL SC.........

CITY           SKY/WX    TMP DP  RH WIND       PRES   REMARKS
COLUMBIA       CLEAR     81  75  82 CALM      29.94F
ORANGEBURG     CLEAR     78  76  93 CALM      29.97F
SUMTER SHAW    CLEAR     80  74  84 SW7       29.93F

.........WESTERN SC.........

CITY           SKY/WX    TMP DP  RH WIND       PRES   REMARKS
GREENVILLE     NOT AVBL
ROCK HILL      CLEAR     76  76 100 SW5       29.96F
ANDERSON       CLEAR     78  74  87 SW5       29.97F
CLEMSON        NOT AVBL
GREENWOOD      CLEAR     78  75  90 W7        29.97F


...................COASTAL AND OFFSHORE REPORTS..................

................LOCAL PIERS AND NC RESERVE................


STATION/POSITION TIME  SKY/WX   TEMP    WIND        PRES    VSBY
                                AIR SEA DIR/SP/G
                 (UTC)          (F)     (DEG/KT/KT) (MB)    (MI)
JOHNY MRCER PIER 0548               84  190/ 12/ 13 1013.8F
NC RESRV MASNBRO NOT AVBL
OCEAN CREST PIER NOT AVBL
SPRINGMAID  PIER 0548                               1013.9F


................COASTAL AND OFFSHORE BUOYS................


STATION/POSITION TIME  SKY/WX   TEMP    WIND        PRES    VSBY
                                AIR SEA DIR/SP/G
                 (UTC)          (F)     (DEG/KT/KT) (MB)    (MI)
DIMNDSHOAL 41025 0550            84 86  170/ 14/ 16 1015.4F
WVE H/P(F/S)=  2/ 7 SWL H/P/D(F/S/D)=  2/ 60/ 7

CAPE LOOKOUT     0600            82     160/ 10/ 11 1014.7F
ONSLOW BAY 41036 NOT AVBL
ONSLOW BAY 41064 0508            81 83  180/  8/ 10 1015.7F
ONSLOW BAY 41159 0543               83                N/A
WVE H/P(F/S)=  2/ 6

MASNBO INL 41110 0529               83                N/A
WVE H/P(F/S)=  2/ 8

WILM HARBR 41108 0530               84                N/A
WVE H/P(F/S)=  2/ 4

27SE WRITB 41037 0508            84 83  180/ 10/ 12 1015.3F
FRYING PAN 41013 0600            84 84  200/ 10/ 10 1014.8
SUNST NRSH 41024 0508            84 85  210/  8/ 10 1014.9F
CAPRS NRSH 41029 0508            83 86  230/ 14/ 19 1015.1F
EDISTO     41004 0600            84 84  210/ 12/ 14 1014.8


..........OFFSHORE BUOYS BEYOND 100 NM OFFSHORE...........
.....IN A TRIANGLE---HAT TO BERMUDA TO BAHAMAS TO HAT.....


STATION/POSITION TIME  SKY/WX   TEMP    WIND        PRES    VSBY
                                AIR SEA DIR/SP/G
                 (UTC)          (F)     (DEG/KT/KT) (MB)    (MI)
150E HAT   41001 0600               82  150/  4/  6 1017.0
W BERMUDA  41048 0600            82 83  240/ 16/ 19 1017.2
ATLANTIC S 41049 0550            83 85  110/ 12/ 12 1019.2F
WVE H/P(F/S)=  5/ 9 SWL H/P/D(F/S/D)=  5/110/ 9

E BAHAMAS  41046 0600            81 84  120/ 12/ 17 1017.0
NE BAHAMAS 41047 0600            84 85  120/  6/  8 1018.6
120E CANVRL41010 0600            85 85  190/ 10/ 10 1016.5

END




USA.gov is the U.S. government's official web portal to all federal, state and local government web resources and services.